Location: Caltech
(34.1382°N, 118.1253°W)
Time: 03:35:48
(UTC-07:00)

Tiros 1 despin weight - All Passes

Search period start: 25 June 2017 00:00
Search period end: 05 July 2017 00:00
Orbit: 595 x 643 km, 48.2° (Epoch: 23 June)

Date Brightness Start Highest point End Pass type
(mag) Time Alt. Az. Time Alt. Az. Time Alt. Az.
25 Jun - 00:14:37 10° WNW 00:18:10 24° SW 00:21:43 10° S visible
25 Jun - 14:19:47 10° S 14:22:44 17° SE 14:25:39 10° E daylight
25 Jun - 15:59:21 10° WSW 16:03:55 73° NW 16:08:26 10° NE daylight
25 Jun - 17:42:45 10° WNW 17:46:05 20° NNW 17:49:24 10° NNE daylight
25 Jun - 19:26:54 10° NNW 19:29:02 13° N 19:31:10 10° NNE daylight
25 Jun - 21:08:20 10° NNW 21:11:54 23° NNE 21:15:27 10° ENE visible
25 Jun - 22:49:27 10° NW 22:53:52 81° SW 22:58:16 10° SE visible
26 Jun - 00:34:04 10° WSW 00:34:51 10° SW 00:35:38 10° SW visible
26 Jun - 14:35:16 10° SSW 14:39:28 36° SE 14:43:39 10° ENE daylight
26 Jun - 16:16:45 10° W 16:21:02 39° NNW 16:25:17 10° NE daylight
26 Jun - 18:00:55 10° NW 18:03:34 15° N 18:06:12 10° NNE daylight
26 Jun - 19:44:05 10° NNW 19:46:38 15° N 19:49:09 10° NE daylight
26 Jun - 21:25:04 10° NW 21:29:12 36° NNE 21:33:17 10° E visible
26 Jun - 23:06:41 10° WNW 23:10:45 36° SW 23:14:48 10° SSE visible
27 Jun - 13:14:23 10° SE 13:15:21 11° SE 13:16:18 10° ESE daylight
27 Jun - 14:51:45 10° SW 14:56:21 77° SE 15:00:54 10° NE daylight
27 Jun - 16:34:34 10° WNW 16:38:18 24° NNW 16:42:00 10° NNE daylight
27 Jun - 18:18:57 10° NNW 18:21:09 13° N 18:23:21 10° NNE daylight
27 Jun - 20:00:55 10° NNW 20:04:08 19° NNE 20:07:19 10° ENE daylight
27 Jun - 21:41:53 10° NW 21:46:20 69° NE 21:50:42 10° ESE visible
27 Jun - 23:24:39 10° W 23:27:29 17° SW 23:30:19 10° S visible
28 Jun - 13:28:20 10° S 13:32:02 24° SE 13:35:42 10° E daylight
28 Jun - 15:08:52 10° WSW 15:13:23 54° NW 15:17:51 10° NE daylight
28 Jun - 16:52:40 10° WNW 16:55:44 17° NNW 16:58:46 10° NNE daylight
28 Jun - 18:36:27 10° NNW 18:38:45 14° N 18:41:02 10° NE daylight
28 Jun - 20:17:39 10° NW 20:21:30 28° NNE 20:25:19 10° E daylight
28 Jun - 21:58:56 10° WNW 22:03:17 57° SW 22:07:36 10° SE visible
29 Jun - 13:44:22 10° SSW 13:48:50 51° SE 13:53:16 10° ENE daylight
29 Jun - 15:26:28 10° W 15:30:34 31° NNW 15:34:38 10° NE daylight
29 Jun - 17:10:49 10° NW 17:13:16 14° N 17:15:42 10° NNE daylight
29 Jun - 18:53:27 10° NNW 18:56:19 16° NNE 18:59:09 10° NE daylight
29 Jun - 20:34:25 10° NW 20:38:43 48° NNE 20:43:00 10° ESE visible
29 Jun - 22:16:25 10° WNW 22:20:06 26° SW 22:23:46 10° S visible
30 Jun - 12:21:50 10° SSE 12:24:37 16° SE 12:27:23 10° E daylight
30 Jun - 14:01:09 10° SW 14:05:47 78° NW 14:10:21 10° NE daylight
30 Jun - 15:44:26 10° WNW 15:47:55 21° NNW 15:51:21 10° NNE daylight
30 Jun - 17:28:39 10° NNW 17:30:51 13° N 17:33:04 10° NNE daylight
30 Jun - 19:10:13 10° NNW 19:13:46 22° NNE 19:17:16 10° ENE daylight
30 Jun - 20:51:19 10° NW 20:55:47 87° SW 21:00:11 10° SE visible
30 Jun - 22:35:18 10° WSW 22:36:47 11° SW 22:38:15 10° SSW visible
01 Jul - 12:37:10 10° SSW 12:41:20 33° SE 12:45:30 10° ENE daylight
01 Jul - 14:18:29 10° WSW 14:22:53 41° NNW 14:27:13 10° NE daylight
01 Jul - 16:02:35 10° NW 16:05:24 16° NNW 16:08:10 10° NNE daylight
01 Jul - 17:45:54 10° NNW 17:48:27 15° N 17:50:59 10° NE daylight
01 Jul - 19:26:57 10° NW 19:31:04 35° NNE 19:35:09 10° E daylight
01 Jul - 21:08:30 10° WNW 21:12:40 40° SW 21:16:48 10° SSE visible
02 Jul - 12:53:35 10° SW 12:58:13 72° SE 13:02:48 10° NE daylight
02 Jul - 14:36:16 10° W 14:40:08 26° NNW 14:43:58 10° NNE daylight
02 Jul - 16:20:38 10° NW 16:22:58 14° N 16:25:16 10° NNE daylight
02 Jul - 18:02:46 10° NNW 18:05:58 19° NNE 18:09:08 10° ENE daylight
02 Jul - 19:43:46 10° NW 19:48:13 64° NE 19:52:36 10° ESE daylight
02 Jul - 21:26:21 10° W 21:29:25 18° SW 21:32:28 10° S visible
03 Jul - 11:30:17 10° S 11:33:54 22° SE 11:37:30 10° E daylight
03 Jul - 13:10:38 10° WSW 13:15:13 58° NW 13:19:46 10° NE daylight
03 Jul - 14:54:20 10° WNW 14:57:33 18° NNW 15:00:43 10° NNE daylight
03 Jul - 16:38:13 10° NNW 16:40:34 14° N 16:42:54 10° NE daylight
03 Jul - 18:19:30 10° NW 18:23:22 27° NNE 18:27:10 10° E daylight
03 Jul - 20:00:47 10° WNW 20:05:11 62° SW 20:09:33 10° SE daylight
04 Jul - 11:46:13 10° SSW 11:50:41 47° SE 11:55:08 10° ENE daylight
04 Jul - 13:28:11 10° W 13:32:23 33° NNW 13:36:33 10° NE daylight
04 Jul - 15:12:29 10° NW 15:15:04 15° N 15:17:38 10° NNE daylight
04 Jul - 16:55:16 10° NNW 16:58:08 16° NNE 17:00:58 10° NE daylight
04 Jul - 18:36:16 10° NW 18:40:36 45° NNE 18:44:52 10° ESE daylight
04 Jul - 20:18:11 10° WNW 20:22:01 28° SW 20:25:48 10° SSE daylight
